SCP
0 0 0 0 0 0 0 0 0 0 0 0 0 0 0 0 0 0 0 0 0 0 0 0 0 0 0 0 0 -0 -0 0 0 0 0 0 0 0 0 0 0 0 0 0
0 0 0 0 0 0 0 0 0 0 0 0 0 0 0 0 0 0 0 0 0 0 0 0 0 0 0 0 0 0 0 0 0 0 0 0 0 0 0 0 0 0 0 0
0 0 0 0 0 0 0 0 0 0 0 0 0 0 0 0 0 0 0 0 0 -0 0 0 0 0 0 0 0 0 0 0 0 0 0 0 0 0 0 0 0 0 0 0
0 0 0 0 0 0 0 0 0 0 0 0 0 0 0 0 0 0 0 0 0 -0 -0 0 0 0 0 0 0 0 0 0 0 0 0 0 0 0 0 0 0 0 0 0
0 0 0 0 0 0 0 0 0 0 0 0 0 0 0 0 0 0 0 0 0 0 0 0 0 0 0 0 0 0 0 0 0 0 0 0 0 0 0 0 0 0 0 0
0 0 0 0 0 0 0 0 0 0 0 0 0 0 0 0 0 0 0 0 0 0 0 0 0 0 0 0 0 0 0 0 0 0 0 0 0 0 0 0 0 0 0 0
0 0 0 0 0 0 0 0 0 0 0 0 0 0 0 0 0 0 0 0 0 0 0 0 0 0 0 0 0 0 0 0 0 0 0 0 0 0 0 0 0 0 0 0
0 0 0 0 0 0 0 0 0 0 0 0 0 0 0 0 0 0 0 0 0 0 0 0 0 0 0 0 0 0 0 0 0 0 0 0 0 0 0 0 0 0 0 0
0 0 0 0 0 0 0 0 0 0 0 0 0 0 0 0 0 0 0 0 0 0 0 0 0 0 0 0 0 0 0 0 0 0 0 0 0 0 0 0 0 0 0 0
0 0 0 0 0 0 0 0 0 0 0 0 0 0 0 0 0 0 0 0 0 0 0 0 0 0 0 0 0 0 0 0 0 0 0 0 0 0 0 0 0 0 0 0
0 0 0 0 0 0 0 0 0 -0 0 0 0 0 0 0 0 0 0 0 0 0 0 0 0 0 0 0 0 0 0 0 0 0 0 0 0 0 0 0 0 0 0 0
0 0 0 0 0 0 0 0 -0 -0 -0 -0 0 0 0 0 0 0 0 0 0 0 0 0 0 0 0 0 0 0 0 0 0 0 0 0 0 0 0 0 0 0 0 0
-0 0 0 0 0 0 0 0 0 0 0 0 0 0 0 0 0 0 0 0 0 0 0 0 0 0 0 0 0 0 0 0 0 0 0 0 0 0 0 0 0 0 0 0
-0 -0 -0 -0 0 0 0 -0 0 0 0 0 0 0 0 0 0 0 0 0 0 0 0 0 0 0 0 0 0 0 0 0 0 0 0 0 0 0 0 0 0 0 0 0
-0 -0 -0 -0 0 0 0 0 0 0 0 0 0 0 0 0 0 0 0 0 0 0 0 0 0 0 0 0 0 0 0 0 0 0 0 0 0 0 0 0 0 0 0 0
0 0 0 0 0 0 0 0 0 0 0 0 0 0 0 0 0 0 0 0 0 0 0 0 0 0 0 0 0 0 0 0 0 0 0 0 0 0 0 0 0 0 0 0
0 0 0 0 0 0 0 0 0 0 0 0 0 0 0 0 0 0 0 0 0 0 0 0 0 0 0 0 0 0 0 0 0 0 0 0 0 0 0 0 0 0 0 0
0 0 0 0 0 0 0 -0 -0 0 0 0 0 0 0 0 0 0 0 0 0 0 0 0 0 0 0 0 0 0 0 0 0 0 0 0 0 0 0 0 0 0 0 0
0 0 0 0 0 0 0 0 0 0 0 0 0 0 0 0 0 0 0 0 0 0 0 0 0 0 0 0 0 0 0 0 0 0 0 0 0 0 0 0 0 0 0 0
0 0 0 0 0 0 0 0 0 0 0 0 0 0 0 0 0 0 0 0 0 0 0 0 0 0 0 0 0 0 0 0 0 0 0 0 0 0 0 0 0 0 0 0
0 0 0 0 0 0 0 0 0 0 0 0 0 0 0 0 0 0 0 0 0 0 0 0 0 0 0 0 0 0 0 0 0 0 0 0 0 0 0 0 0 0 0 0
0 0 0 0 0 0 0 0 0 0 0 0 0 0 0 0 0 0 0 0 0 0 0 0 0 0 0 0 0 0 0 0 0 0 0 0 0 0 0 0 0 0 0 0
0 0 0 0 0 0 0 0 0 0 0 0 0 0 0 0 0 0 0 0 0 0 0 0 0 0 0 0 0 0 0 0 0 0 0 0 0 0 0 0 0 0 0 0
0 0 0 0 0 0 0 0 0 0 0 0 0 0 0 0 0 0 0 0 0 0 0 0 0 0 0 0 0 0 0 0 0 0 0 0 0 0 0 0 0 0 0 0
0 0 0 0 0 0 0 0 0 0 0 0 0 0 0 0 0 0 0 0 0 0 0 0 0 0 0 0 0 0 0 0 0 0 0 0 0 0 0 0 0 0 0 0
0 0 0 0 0 0 0 0 0 0 0 0 0 0 0 0 0 0 0 0 0 0 0 0 0 0 0 0 0 0 0 0 0 0 0 0 0 0 0 0 0 0 0 0
0 0 0 0 0 0 0 0 0 0 0 0 0 0 0 0 0 0 0 0 0 0 0 0 0 0 0 0 0 0 0 0 0 0 0 0 0 0 0 0 0 0 0 0
Wind_Speed
0 1 1 2 3 4 5 4 3 1 1 2 4 4 4 4 4 4 4 4 3 2 2 1 1 0 1 2 2 3 3 3 3 3 3 4 4 4 4 4 4 3 3 3
3 2 2 3 4 4 5 4 3 2 1 3 3 3 4 4 4 4 4 4 3 2 2 1 1 0 1 2 2 3 3 3 2 3 3 3 4 4 4 4 4 4 4 4
4 3 5 5 3 4 3 2 3 3 1 2 3 4 4 4 4 4 4 4 3 2 1 1 0 0 1 2 2 3 3 3 3 3 3 3 4 4 4 5 5 5 5 4
3 5 7 3 3 2 3 3 1 2 2 2 2 3 4 5 5 5 5 4 4 3 2 2 1 1 1 1 2 3 3 3 3 3 3 4 4 4 5 4 4 5 5 5
5 5 3 3 3 3 4 3 2 2 2 2 2 3 4 5 5 5 4 4 4 4 3 2 2 1 1 1 2 2 3 3 3 4 4 4 5 5 5 5 4 5 5 5
6 6 5 4 4 1 4 4 3 1 2 1 1 2 2 4 4 4 4 4 4 3 3 2 2 2 2 2 2 3 3 4 4 4 4 5 5 5 5 5 5 5 5 5
8 7 3 4 2 4 6 3 3 1 1 0 1 3 3 3 3 3 4 4 4 3 3 3 3 3 3 2 3 3 3 4 3 4 5 5 5 5 5 5 5 6 5 5
7 8 3 5 3 2 3 5 2 1 1 1 2 3 3 3 3 3 3 4 4 3 3 3 3 3 4 4 4 4 3 4 4 4 4 4 4 4 5 5 6 6 6 5
3 1 6 4 4 3 3 2 2 2 2 1 1 2 3 4 4 3 3 3 4 4 4 3 3 4 5 4 5 4 4 4 5 5 4 4 4 4 4 5 5 5 5 5
3 3 3 2 2 1 2 2 2 2 2 2 2 3 4 4 4 4 4 4 4 4 4 4 4 4 5 5 5 5 5 5 5 5 5 4 4 4 4 4 5 5 5 5
4 3 3 3 1 1 2 2 2 2 2 2 3 4 4 4 4 4 4 4 4 4 5 5 5 5 5 5 5 6 6 5 5 5 5 4 4 4 5 5 4 5 5 5
4 3 3 2 1 2 2 2 2 3 3 3 4 5 5 5 4 4 4 4 5 5 6 6 6 6 5 5 5 6 6 5 4 4 4 4 4 4 3 5 5 7 7 7
4 2 3 2 2 3 3 3 3 4 4 4 5 5 5 5 5 5 5 5 5 6 6 6 6 6 6 5 6 6 7 6 5 5 4 5 5 5 4 3 5 7 8 8
5 4 5 4 4 3 4 4 4 4 4 4 5 5 5 5 5 6 6 6 6 6 7 7 7 7 6 6 7 7 7 6 6 5 5 5 5 5 5 5 4 4 5 8
6 6 5 4 4 4 3 3 4 4 4 4 4 5 5 6 6 7 6 6 7 7 7 7 8 7 6 7 7 8 7 5 5 6 6 6 6 5 5 6 6 5 4 4
4 4 5 5 5 5 4 4 5 5 5 5 5 5 6 7 7 7 6 6 7 8 8 8 8 8 7 7 8 7 6 7 7 6 6 6 6 6 6 6 6 6 6 5
6 6 6 5 5 5 5 5 5 5 5 6 6 7 7 7 7 7 7 7 8 9 9 9 9 8 7 7 8 6 6 6 7 7 7 6 6 6 6 6 6 6 6 5
7 6 6 5 5 5 5 6 6 6 6 6 7 7 7 8 8 8 8 9 9 10 10 10 9 8 8 8 7 6 6 6 6 7 7 7 7 7 7 7 7 7 5 5
4 5 5 5 5 5 5 6 6 6 6 7 7 8 8 9 9 9 9 9 10 10 10 9 9 9 9 8 7 7 7 8 8 7 7 7 8 8 7 7 7 7 6 5
3 3 4 4 5 5 5 6 6 6 6 7 8 8 9 9 9 9 10 10 9 8 10 10 10 10 9 8 8 7 8 9 9 8 7 7 8 8 8 8 8 7 7 6
3 3 4 5 5 6 6 6 6 7 7 7 8 9 10 10 10 10 9 10 10 9 10 10 9 9 8 8 9 8 8 9 9 8 8 8 8 8 8 8 8 7 7 7
3 4 5 5 5 6 6 6 7 7 8 8 9 10 10 11 11 10 11 9 10 10 9 8 8 9 9 10 8 9 9 9 9 8 8 8 8 8 8 8 8 8 7 8
4 5 5 6 6 6 6 6 7 7 8 9 9 10 11 10 9 9 10 9 9 11 10 9 11 13 14 11 9 9 10 10 10 9 9 8 8 8 8 9 8 7 7 7
5 5 6 6 6 7 8 8 7 7 8 9 9 10 10 9 9 9 9 10 11 12 11 11 13 15 15 10 9 9 9 9 9 9 9 9 8 8 8 8 8 7 8 9
6 7 7 7 7 7 8 8 8 8 9 8 9 10 9 8 9 9 10 11 12 12 11 12 15 16 12 10 10 10 9 9 9 9 9 9 8 8 8 8 7 7 7 7
7 7 7 8 7 6 7 6 7 7 7 8 8 8 8 7 9 9 9 11 13 13 11 10 10 11 10 10 10 11 10 10 10 9 10 9 9 9 8 8 9 7 7 7
8 7 6 7 7 7 6 6 7 8 8 8 9 8 8 8 8 9 10 10 10 10 10 9 9 9 9 9 10 9 9 9 9 8 8 8 8 8 8 9 7 6 6 6
Wind_Direction
45 56 235 240 235 229 246 268 258 156 138 51 40 41 53 60 64 66 64 58 61 70 80 112 130 184 219 222 209 202 207 219 232 239 235 242 245 244 245 242 241 242 250 256
197 184 216 247 246 234 241 249 244 219 168 59 62 68 70 65 62 59 49 40 37 48 57 74 127 183 224 232 227 220 219 224 234 250 241 241 242 243 240 235 237 238 242 250
212 184 233 238 237 210 188 207 229 216 97 79 82 65 53 54 59 50 39 28 17 9 5 343 350 233 239 238 226 232 231 224 228 238 236 239 237 234 231 233 234 239 240 242
234 215 234 87 86 139 138 107 80 71 82 84 80 79 62 52 44 38 28 16 9 353 353 344 350 313 273 249 238 241 248 244 238 245 242 241 240 239 238 240 234 233 238 240
230 230 219 152 148 179 181 131 91 95 86 84 110 152 96 51 26 20 14 7 2 348 346 348 354 326 284 261 256 255 260 263 254 245 242 240 237 239 244 241 237 233 228 231
222 232 228 134 114 200 213 163 117 106 88 72 229 229 71 29 8 8 6 2 358 350 352 359 353 324 286 281 283 276 269 268 263 251 243 242 242 243 243 241 239 239 231 230
227 235 219 89 115 198 216 112 98 94 80 49 324 358 18 0 356 354 356 355 350 349 356 351 337 314 298 299 300 296 283 274 265 253 247 247 247 240 236 237 240 240 233 231
218 229 188 100 155 184 52 67 86 57 32 22 11 5 351 343 338 338 345 350 344 340 346 340 328 309 304 307 308 303 285 273 265 258 253 246 240 239 236 233 234 233 230 228
243 42 70 95 98 64 51 63 48 22 7 350 329 331 332 327 325 328 333 337 337 330 329 330 322 308 305 312 309 296 279 270 266 262 254 249 241 235 233 231 234 232 229 228
205 161 126 121 119 74 29 22 10 357 339 316 309 312 313 316 320 324 325 323 321 318 318 321 319 307 306 311 303 291 281 274 266 261 257 251 246 241 239 236 236 234 232 231
219 181 182 183 185 342 342 335 335 342 326 307 304 304 305 304 307 312 316 315 308 305 308 314 315 311 311 308 299 290 283 277 271 265 262 255 247 249 249 250 251 245 240 236
232 205 234 238 263 279 286 296 299 301 306 304 298 299 299 298 303 303 306 308 303 304 308 313 314 312 310 304 294 291 287 282 274 268 261 256 253 255 262 259 248 245 253 252
270 285 279 290 282 268 271 284 286 285 289 294 298 297 294 295 297 298 297 299 301 303 304 309 311 310 311 302 292 287 284 281 273 266 260 256 252 251 257 264 242 234 234 234
249 249 252 255 268 275 274 276 274 277 282 286 294 295 291 290 292 291 292 295 297 297 299 302 303 304 307 301 292 286 285 278 272 265 261 258 255 252 250 251 251 245 227 219
241 244 251 262 264 266 264 266 271 277 286 292 295 291 289 287 287 289 293 294 291 290 293 295 296 299 303 297 291 287 282 278 274 271 264 260 257 254 252 252 250 244 232 211
227 228 232 239 249 254 257 264 269 276 284 287 289 287 287 286 287 287 289 289 287 288 291 290 290 294 294 289 287 283 278 272 274 271 262 257 255 254 255 253 248 240 232 220
226 228 230 237 245 251 256 263 268 273 278 280 285 289 287 284 284 286 288 288 286 287 287 287 288 292 288 283 282 281 280 274 262 264 260 257 256 255 256 254 249 244 238 219
234 240 245 250 254 257 261 263 265 272 278 283 284 283 281 280 283 286 290 291 290 287 286 287 291 292 286 282 282 282 279 276 269 265 262 257 258 258 255 255 251 246 243 218
222 229 239 247 253 258 261 265 269 274 278 279 277 278 279 279 281 285 288 289 288 288 290 293 293 284 284 281 282 275 276 276 272 267 264 259 256 256 254 254 252 243 239 229
218 234 246 254 258 262 266 269 272 274 276 278 278 278 279 281 283 286 286 283 282 287 292 296 290 284 283 281 277 274 274 274 272 269 265 261 257 257 255 253 253 246 239 233
235 250 257 261 264 266 267 271 273 274 277 276 276 278 281 283 285 284 283 282 286 290 292 289 281 281 281 285 275 272 271 272 270 267 264 261 258 256 255 253 252 249 242 237
253 263 268 269 269 271 273 275 275 276 277 277 278 279 281 282 283 282 279 280 286 286 286 283 282 285 288 286 274 271 269 269 269 268 265 262 259 256 253 252 250 249 245 240
263 268 271 271 272 276 279 278 276 276 277 278 280 281 281 282 282 281 283 285 287 290 287 282 286 288 286 279 272 268 266 266 267 266 265 263 259 256 254 252 250 248 247 240
265 267 269 272 274 274 274 277 279 278 277 279 278 279 280 279 277 275 279 285 284 285 282 282 281 281 280 274 272 268 266 266 266 266 265 263 260 257 253 250 248 246 245 240
268 268 267 268 267 267 273 278 279 279 279 279 281 282 280 277 278 284 285 285 287 285 282 283 282 281 276 273 272 270 267 265 266 267 264 262 259 256 254 251 247 247 246 241
267 267 265 262 263 267 270 272 273 277 282 283 283 284 284 281 280 280 280 282 284 284 283 283 281 278 275 276 274 271 269 267 264 261 262 262 258 254 252 248 247 244 243 242
264 264 264 263 260 259 263 267 270 274 277 280 284 288 288 287 285 285 285 284 285 284 283 282 282 280 278 275 272 270 269 268 265 263 262 260 257 254 249 246 243 241 239 236